RH
62 58 62 69 74 80 98 80 98 49 65 60 60 67 60 61 76 82 84 95 95 95 97 97 98 98 96 96 89 92 85 84 88 86 81 95 90 86 86 76 98 99 100 96
78 59 77 84 74 79 83 80 87 85 88 59 52 59 63 72 80 88 95 94 95 97 97 98 100 98 98 97 92 90 86 89 92 84 76 98 93 89 90 88 100 100 100 100
87 53 64 86 75 77 85 88 76 76 58 55 70 69 74 78 90 96 94 96 96 97 97 98 98 97 96 97 99 90 91 91 92 87 83 95 99 88 69 88 98 100 100 100
91 66 56 70 78 74 74 63 66 72 73 70 74 76 81 79 93 95 96 96 96 98 98 100 96 96 96 96 98 90 90 89 92 91 90 98 100 89 66 92 98 100 100 100
92 78 47 60 62 56 73 65 76 81 78 70 77 86 60 60 88 97 97 97 97 98 97 96 96 97 98 97 98 94 95 92 90 89 96 98 96 68 77 92 100 100 99 96
83 87 70 66 37 39 66 96 57 64 71 81 85 90 73 82 98 96 96 98 98 96 96 97 96 97 97 100 100 100 99 98 90 87 99 95 94 56 90 96 100 100 100 92
84 84 57 33 28 36 46 50 53 56 69 81 93 94 94 98 98 99 98 97 96 98 98 97 96 97 99 85 96 99 98 95 87 85 95 91 92 58 100 99 99 100 99 100
73 78 68 27 30 34 45 38 47 57 67 86 97 97 97 98 100 100 96 96 96 96 95 95 96 98 98 99 97 96 88 90 82 97 90 82 76 71 100 99 100 100 100 100
43 43 33 32 30 34 38 43 50 62 73 87 100 98 90 99 100 100 100 97 97 97 97 96 96 99 100 100 96 79 74 77 78 94 82 76 84 78 100 99 100 100 100 100
47 29 28 29 31 34 40 45 46 58 74 87 100 100 91 97 100 100 97 98 97 96 96 98 98 100 99 91 91 96 95 91 83 83 64 90 92 80 99 98 100 100 100 100
56 39 29 29 32 40 38 43 47 46 64 85 90 100 91 92 100 100 100 95 96 96 96 96 96 99 100 97 99 88 85 87 91 94 75 90 93 99 99 98 96 95 98 97
47 29 29 32 38 39 40 46 51 61 68 76 87 93 89 77 96 100 100 100 94 96 96 98 96 98 98 99 95 98 99 98 86 94 98 97 99 100 100 99 100 100 99 97
44 35 31 31 33 39 44 48 50 58 68 81 80 90 87 70 76 75 89 91 100 95 96 96 96 97 100 100 100 99 99 98 99 100 100 100 100 98 100 100 100 100 100 100
37 38 33 28 35 41 45 48 50 54 62 72 82 80 79 68 61 72 72 71 91 100 97 96 97 97 98 99 100 100 100 100 100 100 100 100 100 100 99 98 99 99 95 98
39 32 32 32 34 41 46 52 52 56 60 58 68 80 81 76 61 73 67 70 76 92 96 99 96 95 98 99 97 98 99 100 100 100 100 100 100 100 99 100 100 93 97 96
27 33 33 34 37 42 47 53 56 58 64 64 70 76 77 73 63 67 64 64 75 89 99 94 94 97 98 97 98 97 100 100 100 100 100 100 100 100 100 100 98 90 94 92
29 36 34 34 38 42 48 56 61 67 70 71 72 78 74 73 67 59 66 58 68 73 93 91 100 93 96 92 96 100 99 99 100 100 100 100 100 98 95 93 90 96 99 99
29 28 32 32 38 40 47 53 59 67 73 71 70 73 73 78 83 72 66 66 56 59 75 82 94 97 93 95 94 96 99 100 99 100 100 100 100 100 98 98 99 99 99 100
29 33 30 28 33 37 42 47 54 61 70 68 66 72 78 77 78 78 71 71 61 68 69 84 81 86 88 94 97 99 99 100 100 100 99 100 100 100 100 100 99 99 98 100
31 28 22 26 30 35 38 46 50 57 65 65 66 70 74 76 75 78 77 77 71 75 73 79 81 86 93 90 93 96 97 98 100 100 100 100 100 100 100 100 100 100 100 100
22 20 21 26 29 34 37 44 50 53 60 65 69 72 78 77 81 78 80 80 75 61 76 68 79 97 94 94 93 95 96 95 97 98 100 100 100 100 100 100 100 100 100 100
18 20 24 29 33 35 42 47 54 58 60 65 70 72 72 72 80 78 85 94 84 68 75 69 80 97 92 96 94 95 95 96 97 97 98 99 100 100 100 100 100 100 100 100
18 22 27 30 34 39 45 51 55 59 62 70 73 74 77 81 87 90 84 85 87 82 76 75 81 87 88 94 94 95 96 96 96 96 97 97 98 99 100 100 99 100 100 100
22 24 27 32 37 42 45 50 54 62 67 76 78 82 84 82 77 88 86 88 86 85 83 83 83 85 88 91 94 95 95 96 96 96 97 97 98 98 98 99 99 99 100 100
24 26 29 33 38 44 46 46 56 64 70 78 82 84 85 86 89 87 89 87 86 84 84 86 83 86 88 90 95 95 95 95 96 96 96 96 97 97 98 98 98 98 99 99
24 28 31 36 40 43 43 50 60 66 69 73 78 80 79 85 86 84 86 87 86 87 86 89 88 90 93 92 94 95 95 95 95 95 96 96 96 96 97 97 97 98 98 98
28 26 32 38 40 42 47 56 61 66 73 75 76 78 78 82 82 84 86 85 84 86 87 89 93 92 95 96 93 95 96 95 95 95 95 96 96 97 97 97 97 97 97 97
Wind_Speed
14 19 14 15 16 7 10 15 4 22 18 26 27 24 41 54 57 57 57 56 57 59 56 53 49 44 41 35 29 30 34 38 40 37 40 34 36 40 38 38 44 45 36 53
7 8 7 8 11 9 11 13 16 21 24 19 29 40 43 47 53 54 54 61 63 59 57 52 51 44 39 35 30 27 32 36 36 36 42 34 36 40 39 40 41 46 44 42
6 7 12 6 8 7 4 5 7 12 21 23 20 31 41 51 53 49 61 63 61 58 57 57 51 50 44 32 22 26 31 33 34 35 38 34 34 38 40 40 39 47 40 41
5 10 5 5 2 5 11 11 12 14 16 17 23 39 48 50 38 57 62 62 61 59 60 60 56 47 35 24 19 26 29 30 31 33 35 32 34 39 41 38 43 48 39 44
3 2 9 2 4 2 2 16 5 6 9 23 31 38 33 33 52 56 61 61 58 58 58 59 53 46 28 15 19 25 28 30 31 35 30 32 34 40 39 37 43 47 39 43
3 3 5 4 5 2 9 5 7 10 18 25 36 17 17 61 62 64 66 64 62 61 58 54 52 36 11 14 21 25 26 26 31 35 26 32 34 39 36 39 43 46 40 48
7 5 8 3 3 1 5 6 24 25 24 25 14 26 53 57 59 59 59 61 60 59 54 53 47 31 3 8 17 21 25 25 30 29 27 31 31 40 29 36 44 37 44 45
3 3 9 5 5 3 6 27 23 25 27 26 30 42 50 52 55 58 64 66 61 60 58 53 46 30 17 4 9 17 23 27 29 20 26 27 30 38 28 37 41 39 46 43
7 5 4 8 11 12 19 21 23 25 26 30 30 38 53 53 54 54 58 61 59 57 54 51 50 33 19 19 13 20 28 25 26 21 24 25 31 36 32 38 36 43 47 48
3 3 8 8 15 15 14 22 28 27 28 32 31 36 49 53 52 51 58 62 60 61 61 60 54 42 22 12 15 21 22 24 24 25 26 28 31 37 32 41 42 43 44 46
6 18 25 11 7 13 20 22 24 29 31 32 36 37 46 52 50 53 49 58 61 53 53 56 60 51 37 15 12 20 21 22 25 23 26 30 32 32 44 43 46 45 46 48
7 5 4 4 9 18 19 23 26 28 32 32 33 36 44 53 52 51 50 53 59 59 60 61 57 57 47 19 15 14 15 19 26 23 28 34 36 43 39 42 43 43 45 45
5 6 7 12 17 16 20 25 25 27 28 31 32 35 41 49 53 54 55 56 55 54 55 63 66 64 54 36 18 10 10 20 28 27 35 46 45 41 41 37 35 39 25 18
23 18 11 10 9 18 23 23 24 25 28 31 35 36 39 45 50 53 57 58 57 53 54 60 63 60 52 42 27 20 20 25 40 37 36 36 38 37 31 31 30 25 19 13
25 22 17 15 16 19 20 21 23 25 27 30 33 36 39 42 48 52 52 53 56 57 61 60 62 61 54 47 35 28 24 21 25 26 27 25 27 28 28 26 24 22 17 17
17 15 13 12 13 15 17 18 21 24 26 29 32 36 37 38 42 46 48 51 58 58 59 57 58 55 50 45 40 30 26 20 16 19 20 18 21 21 21 22 22 22 23 23
15 12 11 9 10 11 14 15 18 20 23 26 29 32 35 38 39 43 46 45 48 47 50 51 50 48 45 41 37 31 25 17 12 11 14 17 17 16 17 18 20 23 24 24
16 10 7 8 9 10 11 13 16 18 20 23 26 29 31 35 36 38 41 42 44 43 48 48 45 43 41 38 35 30 25 21 14 10 7 9 12 14 16 18 22 24 25 25
15 9 7 8 9 9 10 12 14 16 18 21 24 27 27 29 31 33 35 38 43 44 46 46 43 42 41 38 34 28 22 18 14 10 6 4 8 14 18 22 24 25 28 30
13 10 7 7 7 8 10 12 15 16 17 20 22 24 27 28 29 30 31 32 35 35 37 40 39 40 39 37 34 29 24 19 14 10 6 3 6 11 15 19 24 27 28 27
14 11 8 7 5 7 9 12 15 16 18 19 20 21 24 25 25 27 30 32 33 33 35 35 35 38 36 34 30 27 23 19 15 9 6 3 4 7 11 15 19 22 23 24
14 10 7 5 4 6 9 11 14 16 16 17 17 18 20 22 24 24 24 27 30 30 32 33 33 33 32 29 26 25 22 18 14 10 5 3 6 9 12 13 14 17 20 22
14 10 6 3 5 7 9 11 13 14 15 15 15 16 18 19 21 24 28 26 27 27 28 30 30 29 29 27 25 23 20 17 14 11 7 3 5 9 12 14 16 17 18 20
14 11 7 4 5 7 8 10 12 12 12 12 12 13 16 19 18 19 19 21 23 24 25 26 27 26 26 25 24 22 20 17 13 11 7 4 4 8 11 14 16 17 18 18
13 9 6 5 4 6 7 9 10 10 10 10 9 11 13 15 18 20 20 20 21 22 23 23 24 24 24 23 22 21 19 16 13 10 7 5 4 7 10 12 13 14 16 17
11 8 6 5 3 3 4 7 8 9 8 8 9 10 12 14 14 16 18 19 19 20 21 22 22 23 23 23 21 20 18 16 13 9 7 5 6 8 10 13 15 16 16 17
13 10 9 6 4 1 2 5 6 6 7 8 9 10 12 13 13 15 16 17 18 18 19 20 20 20 21 21 20 18 17 15 13 10 7 6 6 7 10 12 14 16 17 17
Wind_Direction
261 268 273 274 275 238 199 235 215 280 288 291 302 310 315 312 312 314 313 313 319 319 317 316 312 307 299 294 283 260 246 239 236 233 222 226 220 215 218 204 203 191 185 195
282 261 207 247 243 231 239 258 259 268 275 281 304 308 306 310 313 312 312 319 319 319 319 319 316 310 303 293 282 257 237 232 230 226 218 220 216 211 213 203 201 196 193 187
271 308 300 287 231 203 236 219 217 284 283 307 306 306 310 315 311 313 316 316 318 320 320 320 317 316 312 302 271 237 228 225 222 218 212 215 213 211 205 204 198 199 195 192
283 314 346 241 226 176 220 249 257 268 279 287 298 305 307 306 316 317 316 319 321 323 323 323 326 325 323 306 259 223 218 213 212 207 206 211 208 208 197 204 197 199 189 191
291 267 277 215 213 231 117 307 209 227 267 319 321 310 309 325 323 319 320 321 323 326 326 325 330 331 321 268 233 208 208 206 203 203 202 204 206 204 197 199 197 191 188 190
327 286 268 215 162 33 125 289 191 347 339 332 335 333 324 329 327 327 328 327 329 332 332 334 341 348 279 222 205 201 201 198 195 191 205 201 203 195 201 197 198 188 193 197
229 259 277 160 191 338 37 259 339 343 336 335 329 306 307 319 323 327 327 330 335 338 338 342 349 6 227 202 207 198 190 191 186 184 200 203 200 192 195 196 195 192 196 197
218 278 287 163 311 142 283 316 323 331 333 328 321 316 319 325 327 332 334 338 341 341 344 348 357 19 42 129 229 187 180 180 185 193 193 200 203 198 191 194 183 194 198 199
187 235 146 194 261 284 301 313 322 328 328 331 330 327 330 329 333 335 336 337 342 345 345 354 8 25 34 73 160 166 167 174 177 189 192 187 195 200 190 192 189 188 194 192
19 307 261 281 299 301 306 312 321 328 333 337 336 336 335 333 336 338 344 343 347 350 354 358 9 29 46 97 137 161 164 171 181 189 191 186 200 196 197 193 197 197 198 198
256 280 282 286 278 299 310 318 323 329 337 343 345 344 344 339 340 344 344 348 353 353 356 1 11 30 45 82 129 157 166 169 178 179 195 200 197 193 193 200 202 205 208 208
224 203 221 277 292 311 317 325 329 331 339 343 350 350 351 347 348 349 351 352 1 2 4 10 13 29 45 70 128 140 148 179 183 181 185 193 199 185 197 198 199 204 204 205
195 210 246 286 305 310 321 326 328 332 339 342 351 356 357 352 355 358 2 2 7 4 7 16 20 27 37 53 76 109 166 189 204 215 182 173 178 187 187 191 199 204 194 203
234 250 275 283 295 310 315 321 326 333 340 347 351 358 360 356 357 5 4 6 11 8 11 17 20 26 32 42 61 82 127 165 169 171 174 179 187 185 180 180 180 173 180 200
228 239 253 276 294 303 309 317 325 336 341 346 352 357 1 360 358 3 5 6 11 12 15 20 21 18 22 33 43 52 68 94 139 157 164 171 173 174 175 176 176 166 176 180
211 228 248 266 291 300 310 319 325 335 342 347 350 354 359 2 2 1 6 8 11 12 14 17 18 17 17 22 27 41 57 78 98 135 142 154 161 161 162 165 162 166 177 178
179 207 233 264 284 301 311 319 326 333 339 345 350 353 356 2 4 2 5 9 10 11 15 14 18 16 15 17 21 28 44 53 72 104 130 146 152 170 176 175 172 178 183 182
217 226 253 279 290 303 315 323 328 336 341 345 347 352 359 0 1 3 1 5 7 9 14 12 13 19 16 16 16 15 23 35 46 60 94 138 158 170 174 181 181 179 177 177
197 223 253 274 285 306 321 327 330 338 340 343 347 350 356 359 359 4 4 4 6 7 8 8 6 14 15 14 13 16 20 26 39 51 62 126 170 174 178 180 181 184 185 182
202 215 233 258 284 308 324 325 330 338 343 346 346 347 351 358 358 2 3 8 6 5 5 5 6 10 11 10 6 9 14 20 26 36 59 99 171 178 182 187 187 186 187 185
192 200 209 232 269 305 319 324 328 339 341 342 345 347 347 352 356 1 2 2 4 5 5 4 9 7 7 8 5 5 8 15 18 30 54 106 161 166 173 184 188 187 186 184
187 191 202 236 275 310 319 326 327 331 334 338 343 344 345 351 355 2 7 357 360 2 3 1 8 4 3 5 8 6 6 10 21 25 39 98 155 167 168 170 181 180 182 181
182 183 200 238 291 311 321 325 326 329 332 337 344 344 349 354 359 356 355 1 359 1 360 0 2 3 3 3 11 9 5 9 20 29 38 73 141 156 165 167 172 173 171 171
179 182 188 241 281 300 321 328 328 328 330 339 347 347 347 348 360 356 356 356 357 359 360 0 0 3 4 3 11 12 7 7 16 28 39 59 132 156 162 162 165 165 166 166
184 188 200 221 265 300 325 332 327 330 338 341 347 348 350 350 350 353 356 356 357 358 359 0 2 4 7 7 8 13 14 10 14 21 37 65 116 150 153 151 154 156 158 157
188 193 214 235 253 296 327 324 325 333 338 345 354 351 354 352 352 353 355 356 356 359 359 0 4 5 9 10 8 13 17 17 19 24 38 75 111 134 142 144 143 144 147 147
189 194 209 217 224 243 317 316 323 331 332 336 351 354 352 346 349 352 351 354 357 360 2 1 3 6 9 11 12 15 18 22 25 28 40 74 107 131 137 140 141 141 142 144